GFSFLT1_prec_pwat_273.txt.gz
Precipitable_Water
1.01 1.12 1.21 1.25 1.28 1.32 1.34 1.37 1.53 1.61 1.64 1.66 1.78 1.82 1.75 1.80 1.79 1.84 1.83 1.80 1.66 1.58 1.40 1.33 1.31 1.16 1.00 0.88 0.94 1.15 1.36 1.53 1.59
0.91 1.02 1.13 1.20 1.25 1.30 1.29 1.30 1.36 1.46 1.51 1.53 1.61 1.70 1.73 1.77 1.86 1.84 1.86 1.68 1.50 1.29 1.19 1.13 0.99 0.89 0.84 0.87 0.85 0.76 0.79 0.87 1.04
0.89 0.94 1.02 1.11 1.16 1.21 1.26 1.28 1.30 1.42 1.50 1.42 1.49 1.60 1.73 1.79 1.84 1.78 1.66 1.47 1.26 1.13 1.06 0.97 0.89 0.83 0.85 0.85 0.84 0.80 0.72 0.69 0.72
0.99 0.96 1.00 0.99 1.08 1.13 1.22 1.26 1.29 1.35 1.46 1.47 1.49 1.57 1.65 1.69 1.64 1.59 1.45 1.22 1.06 1.06 0.97 0.92 0.93 0.96 0.99 0.92 0.87 0.86 0.77 0.80 0.80
1.04 1.04 1.03 1.05 1.05 1.09 1.14 1.18 1.27 1.31 1.40 1.45 1.62 1.73 1.70 1.66 1.55 1.44 1.21 1.00 0.92 0.96 0.96 1.07 1.08 1.12 1.11 1.12 1.05 0.96 0.85 0.80 0.83
1.18 1.17 1.05 1.05 1.06 1.09 1.10 1.17 1.27 1.35 1.43 1.45 1.61 1.77 1.73 1.69 1.58 1.33 1.21 1.08 1.04 1.00 1.02 1.15 1.22 1.23 1.25 1.18 1.15 1.11 1.10 0.99 0.90
0.90 1.04 1.01 1.05 1.05 1.10 1.13 1.16 1.27 1.34 1.41 1.54 1.61 1.65 1.66 1.66 1.61 1.30 1.25 1.19 1.15 1.10 1.14 1.16 1.23 1.27 1.32 1.29 1.24 1.25 1.21 1.11 1.02
0.97 1.19 1.05 1.01 1.02 1.03 1.16 1.16 1.23 1.35 1.44 1.56 1.60 1.61 1.66 1.67 1.60 1.29 1.24 1.20 1.18 1.16 1.19 1.27 1.29 1.27 1.28 1.27 1.25 1.23 1.20 1.10 1.01
1.01 1.09 1.15 1.04 0.98 1.01 1.06 1.24 1.24 1.35 1.46 1.55 1.64 1.65 1.66 1.66 1.58 1.34 1.21 1.20 1.14 1.20 1.29 1.33 1.28 1.30 1.30 1.31 1.27 1.21 1.13 1.07 0.93
0.80 0.94 1.04 1.08 1.01 1.02 1.11 1.19 1.43 1.42 1.51 1.65 1.69 1.69 1.70 1.66 1.53 1.39 1.25 1.18 1.14 1.17 1.25 1.30 1.32 1.32 1.36 1.34 1.31 1.21 1.13 1.02 0.96
0.67 0.72 1.04 1.19 1.27 1.20 1.28 1.36 1.44 1.59 1.64 1.63 1.68 1.70 1.72 1.70 1.60 1.50 1.39 1.24 1.21 1.23 1.26 1.28 1.34 1.35 1.35 1.24 1.13 1.10 1.08 1.03 0.91
0.87 0.87 0.92 1.24 1.28 1.25 1.32 1.40 1.49 1.64 1.71 1.70 1.69 1.70 1.73 1.73 1.67 1.63 1.52 1.38 1.32 1.34 1.32 1.33 1.37 1.41 1.33 1.15 1.10 1.10 1.06 0.99 0.89
1.01 1.13 1.01 0.96 1.19 1.32 1.54 1.78 1.72 1.75 1.75 1.66 1.66 1.71 1.74 1.74 1.76 1.67 1.49 1.40 1.39 1.42 1.42 1.46 1.40 1.32 1.20 1.12 1.04 1.01 0.95 0.91 0.82
1.22 1.36 1.22 1.16 1.26 1.43 1.69 2.03 2.01 1.73 2.03 1.74 1.76 1.79 1.76 1.73 1.79 1.52 1.43 1.43 1.49 1.53 1.48 1.36 1.23 1.17 1.10 1.04 0.99 0.97 0.99 0.94 0.70
1.18 1.20 1.40 1.51 1.57 1.68 1.64 1.73 1.59 1.52 1.93 2.03 2.00 1.91 1.91 1.70 1.56 1.54 1.50 1.57 1.57 1.52 1.39 1.20 1.04 1.00 0.95 1.00 1.03 1.04 1.01 0.92 0.81
1.28 1.35 1.39 1.46 1.41 1.42 1.50 1.53 1.58 1.47 1.56 1.57 1.63 1.61 1.62 1.56 1.58 1.59 1.65 1.48 1.46 1.29 1.12 0.98 0.91 0.92 0.89 0.92 1.03 1.08 1.08 0.98 0.90
1.24 1.39 1.35 1.37 1.35 1.27 1.33 1.37 1.44 1.46 1.44 1.46 1.31 1.37 1.48 1.50 1.51 1.51 1.52 1.47 1.31 1.15 1.05 1.00 0.97 0.94 0.97 0.98 1.01 1.06 1.07 1.04 1.00
1.35 1.48 1.58 1.50 1.43 1.41 1.48 1.53 1.49 1.47 1.42 1.44 1.46 1.54 1.48 1.47 1.49 1.51 1.39 1.26 1.15 1.12 1.13 1.08 0.98 0.92 0.89 0.89 0.90 0.96 1.05 1.05 1.00
1.44 1.48 1.58 1.51 1.52 1.50 1.54 1.46 1.39 1.45 1.52 1.51 1.49 1.41 1.52 1.63 1.57 1.39 1.26 1.19 1.09 1.15 1.10 1.08 1.05 1.03 1.00 0.97 0.92 0.89 0.93 0.97 0.98
1.46 1.49 1.46 1.29 1.24 1.33 1.55 1.71 1.70 1.69 1.65 1.63 1.62 1.64 1.56 1.47 1.35 1.19 1.09 1.13 1.07 1.00 1.11 1.17 1.13 1.12 1.11 1.08 1.06 1.06 1.06 1.08 1.04

GFSFLT1_prec_pwat_276.txt.gz
Precipitable_Water
0.89 0.99 1.13 1.19 1.20 1.26 1.30 1.40 1.53 1.62 1.62 1.65 1.68 1.67 1.77 1.85 1.82 1.83 1.81 1.71 1.63 1.53 1.41 1.32 1.23 1.13 1.03 0.91 0.85 0.97 1.24 1.34 1.45
0.85 0.94 1.05 1.12 1.20 1.23 1.27 1.32 1.37 1.51 1.51 1.58 1.62 1.64 1.67 1.72 1.81 1.78 1.71 1.67 1.54 1.31 1.19 1.10 1.03 0.90 0.81 0.81 0.79 0.76 0.79 0.77 0.81
0.98 0.99 1.03 1.11 1.16 1.18 1.28 1.30 1.34 1.45 1.47 1.42 1.51 1.57 1.66 1.66 1.66 1.68 1.66 1.54 1.29 1.21 1.15 1.08 1.00 0.95 0.84 0.82 0.79 0.77 0.73 0.69 0.70
0.99 1.02 1.05 1.10 1.15 1.20 1.26 1.28 1.30 1.34 1.43 1.39 1.41 1.53 1.57 1.58 1.64 1.63 1.50 1.32 1.20 1.09 1.10 1.04 0.95 0.97 1.00 0.99 0.97 0.92 0.83 0.79 0.78
1.08 1.20 1.19 1.14 1.14 1.18 1.18 1.21 1.29 1.26 1.36 1.44 1.46 1.51 1.57 1.66 1.75 1.63 1.46 1.26 1.11 1.06 0.98 0.99 1.05 1.12 1.14 1.12 1.08 0.99 0.96 0.93 0.95
1.08 1.16 1.15 1.14 1.21 1.16 1.15 1.19 1.21 1.21 1.33 1.41 1.49 1.63 1.70 1.75 1.71 1.54 1.43 1.20 1.03 1.05 1.02 1.11 1.20 1.17 1.20 1.23 1.19 1.14 1.15 1.03 0.97
1.06 1.10 1.00 1.03 1.15 1.17 1.14 1.13 1.14 1.15 1.24 1.35 1.38 1.54 1.71 1.76 1.72 1.59 1.36 1.18 1.11 1.09 1.13 1.21 1.27 1.27 1.29 1.27 1.26 1.24 1.20 1.12 1.06
0.97 0.98 0.99 1.00 1.10 1.10 1.15 1.16 1.17 1.19 1.23 1.31 1.42 1.53 1.64 1.69 1.77 1.73 1.44 1.23 1.18 1.18 1.19 1.25 1.32 1.32 1.35 1.34 1.32 1.31 1.27 1.13 1.03
0.91 0.93 1.02 1.09 1.04 1.15 1.16 1.13 1.25 1.21 1.26 1.33 1.43 1.44 1.52 1.65 1.68 1.69 1.57 1.25 1.17 1.19 1.20 1.28 1.30 1.29 1.31 1.33 1.35 1.33 1.27 1.17 1.01
0.94 0.90 0.95 1.00 1.07 1.14 1.19 1.13 1.19 1.30 1.35 1.36 1.46 1.51 1.58 1.59 1.65 1.58 1.52 1.31 1.21 1.10 1.15 1.24 1.24 1.27 1.30 1.33 1.34 1.27 1.18 1.10 1.03
0.96 1.06 1.15 1.19 1.20 1.19 1.22 1.33 1.51 1.75 1.87 1.97 1.80 1.53 1.58 1.60 1.63 1.58 1.55 1.40 1.24 1.16 1.22 1.22 1.27 1.32 1.35 1.40 1.31 1.19 1.15 1.12 1.02
1.24 1.34 1.38 1.30 1.30 1.36 1.53 1.54 1.64 1.71 1.67 1.73 1.86 1.85 1.93 1.67 1.68 1.59 1.59 1.51 1.33 1.30 1.35 1.35 1.39 1.39 1.42 1.32 1.23 1.19 1.10 1.03 0.92
1.14 1.18 1.19 1.25 1.38 1.43 1.44 1.61 1.74 1.84 1.69 1.74 1.53 1.70 1.77 2.04 1.77 1.68 1.61 1.60 1.43 1.41 1.44 1.40 1.42 1.38 1.33 1.26 1.15 1.12 1.00 0.99 0.85
1.36 1.27 1.20 1.34 1.38 1.35 1.53 1.76 1.75 1.76 1.81 1.44 1.32 1.70 1.93 1.99 1.87 1.77 1.73 1.57 1.47 1.37 1.44 1.44 1.35 1.24 1.25 1.21 1.14 1.02 1.05 0.97 0.86
1.35 1.26 1.25 1.21 1.41 1.42 1.50 1.54 1.59 1.36 1.33 1.24 1.24 1.54 2.08 2.03 1.89 1.79 1.64 1.47 1.50 1.51 1.48 1.37 1.21 1.06 0.96 1.02 1.02 1.04 1.04 1.03 0.95
1.31 1.28 1.16 1.13 1.19 1.32 1.42 1.40 1.32 1.18 1.25 1.31 1.18 1.35 1.63 1.74 1.69 1.60 1.56 1.58 1.61 1.50 1.36 1.09 0.92 0.91 0.93 0.95 1.04 1.08 1.10 1.10 1.04
1.42 1.51 1.31 1.31 1.28 1.28 1.28 1.29 1.28 1.32 1.37 1.45 1.35 1.34 1.45 1.53 1.54 1.56 1.63 1.61 1.54 1.32 1.08 1.01 1.01 0.99 0.96 0.98 1.01 1.03 1.08 1.10 1.10
1.56 1.54 1.46 1.41 1.31 1.31 1.29 1.34 1.32 1.45 1.54 1.51 1.39 1.44 1.47 1.50 1.59 1.55 1.49 1.41 1.22 1.10 1.12 1.13 1.04 1.04 1.03 0.95 0.89 0.95 1.07 1.10 1.09
1.51 1.50 1.42 1.29 1.28 1.24 1.26 1.30 1.36 1.48 1.53 1.57 1.48 1.51 1.52 1.52 1.61 1.57 1.50 1.29 1.21 1.28 1.24 1.24 1.22 1.17 1.11 1.08 1.07 1.03 1.02 1.04 1.06
1.51 1.40 1.26 1.24 1.27 1.37 1.44 1.42 1.46 1.63 1.67 1.75 1.69 1.63 1.63 1.56 1.53 1.38 1.27 1.28 1.17 1.09 1.21 1.24 1.26 1.21 1.17 1.16 1.15 1.13 1.11 1.11 1.13

GFSFLT1_prec_pwat_279.txt.gz
Precipitable_Water
0.84 0.88 0.95 1.03 1.15 1.27 1.36 1.38 1.44 1.58 1.67 1.76 1.75 1.78 1.76 1.80 1.91 1.87 1.85 1.82 1.75 1.64 1.56 1.47 1.42 1.25 1.14 1.05 0.94 0.94 1.16 1.32 1.36
0.72 0.83 0.88 0.93 1.08 1.24 1.30 1.37 1.38 1.51 1.60 1.70 1.69 1.67 1.69 1.77 1.88 1.87 1.83 1.82 1.63 1.54 1.45 1.32 1.19 1.10 0.93 0.85 0.80 0.78 0.78 0.81 0.86
0.78 0.86 0.91 0.97 1.05 1.22 1.27 1.35 1.38 1.51 1.57 1.52 1.58 1.66 1.64 1.74 1.81 1.84 1.79 1.69 1.55 1.45 1.35 1.24 1.15 1.08 1.02 0.92 0.87 0.80 0.74 0.72 0.73
0.79 0.89 0.94 1.00 1.13 1.25 1.24 1.35 1.34 1.37 1.43 1.41 1.42 1.48 1.56 1.61 1.62 1.67 1.65 1.54 1.48 1.35 1.24 1.17 1.15 1.10 1.04 1.04 1.05 1.01 0.96 0.92 0.89
0.83 0.93 0.99 1.09 1.20 1.18 1.17 1.24 1.29 1.30 1.34 1.37 1.37 1.40 1.40 1.44 1.51 1.53 1.51 1.38 1.25 1.20 1.07 1.09 1.00 1.07 1.12 1.16 1.15 1.09 1.08 1.04 1.02
0.84 0.93 1.01 1.11 1.21 1.19 1.18 1.18 1.25 1.31 1.30 1.30 1.37 1.40 1.45 1.48 1.45 1.52 1.50 1.41 1.31 1.16 1.08 1.01 1.08 1.13 1.14 1.17 1.18 1.16 1.14 1.06 1.04
0.79 0.92 1.04 1.04 1.11 1.11 1.17 1.23 1.21 1.24 1.27 1.30 1.35 1.37 1.42 1.45 1.51 1.51 1.46 1.43 1.27 0.99 1.02 1.04 1.15 1.20 1.24 1.25 1.23 1.23 1.24 1.20 1.14
0.80 0.93 1.04 1.02 1.09 1.06 1.17 1.30 1.25 1.26 1.25 1.29 1.34 1.36 1.36 1.43 1.60 1.68 1.56 1.43 1.19 1.08 1.08 1.11 1.17 1.23 1.29 1.32 1.32 1.31 1.31 1.28 1.17
0.76 0.90 1.09 1.18 1.23 1.15 1.15 1.28 1.35 1.48 1.55 1.55 1.57 1.50 1.47 1.62 1.76 1.78 1.71 1.55 1.24 1.14 1.13 1.17 1.22 1.25 1.25 1.26 1.29 1.34 1.35 1.25 1.09
0.88 1.00 1.19 1.18 1.26 1.29 1.36 1.41 1.61 1.70 1.80 1.76 1.66 1.68 1.65 1.69 1.79 1.84 1.82 1.74 1.55 1.21 1.14 1.16 1.20 1.25 1.25 1.24 1.28 1.35 1.36 1.24 1.11
1.13 1.22 1.28 1.28 1.23 1.28 1.37 1.52 1.64 1.70 1.75 1.66 1.66 1.73 1.75 1.81 1.75 1.81 1.83 1.82 1.71 1.42 1.23 1.21 1.23 1.21 1.28 1.32 1.34 1.39 1.32 1.24 1.16
1.16 1.20 1.26 1.28 1.35 1.31 1.32 1.40 1.53 1.59 1.63 1.65 1.76 1.67 1.62 1.85 1.79 1.73 1.72 1.77 1.81 1.65 1.33 1.31 1.31 1.34 1.40 1.34 1.34 1.32 1.23 1.16 1.08
1.22 1.22 1.18 1.08 1.12 1.20 1.23 1.34 1.45 1.55 1.56 1.66 1.70 1.48 1.41 1.38 1.49 1.65 1.57 1.61 1.70 1.75 1.48 1.39 1.46 1.47 1.44 1.37 1.26 1.21 1.15 1.14 1.03
1.40 1.41 1.35 1.27 1.18 1.17 1.31 1.36 1.40 1.39 1.56 1.68 1.67 1.55 1.32 1.33 1.38 1.41 1.47 1.52 1.73 1.76 1.57 1.51 1.54 1.44 1.35 1.28 1.23 1.16 1.08 1.06 1.00
1.26 1.22 1.19 1.19 1.18 1.21 1.39 1.45 1.49 1.53 1.54 1.49 1.44 1.43 1.43 1.45 1.49 1.77 1.85 1.78 1.66 1.75 1.57 1.52 1.41 1.31 1.23 1.15 1.11 1.05 1.06 1.07 1.06
1.21 1.12 1.16 1.26 1.29 1.40 1.51 1.55 1.54 1.41 1.34 1.36 1.43 1.52 1.58 1.54 1.59 1.76 1.78 1.67 1.63 1.62 1.59 1.48 1.35 1.12 0.96 0.93 1.03 1.11 1.14 1.12 1.10
1.13 1.16 1.14 1.20 1.23 1.25 1.24 1.29 1.30 1.30 1.35 1.45 1.50 1.59 1.54 1.59 1.58 1.69 1.74 1.77 1.74 1.64 1.49 1.21 1.05 1.01 0.97 0.99 1.04 1.07 1.09 1.11 1.12
1.12 1.11 1.16 1.22 1.21 1.17 1.14 1.17 1.20 1.31 1.41 1.46 1.52 1.60 1.51 1.56 1.61 1.62 1.66 1.65 1.52 1.35 1.22 1.16 1.08 1.06 1.07 1.02 0.99 0.99 1.01 1.06 1.09
1.18 1.16 1.19 1.16 1.18 1.20 1.23 1.27 1.33 1.35 1.40 1.48 1.52 1.57 1.58 1.61 1.62 1.53 1.50 1.37 1.27 1.36 1.33 1.32 1.30 1.29 1.22 1.14 1.15 1.11 1.10 1.08 1.10
1.22 1.18 1.21 1.25 1.28 1.32 1.33 1.33 1.34 1.44 1.51 1.58 1.59 1.61 1.60 1.44 1.47 1.49 1.45 1.38 1.28 1.19 1.30 1.27 1.24 1.27 1.21 1.17 1.17 1.21 1.18 1.19 1.17

GFSFLT1_prec_pwat_285.txt.gz
Precipitable_Water
0.74 0.77 0.83 0.85 0.93 1.04 1.09 1.17 1.28 1.31 1.39 1.54 1.66 1.75 1.79 1.81 1.82 1.80 1.85 1.88 1.84 1.82 1.67 1.53 1.48 1.35 1.22 1.10 0.98 0.90 0.92 1.04 1.23
0.70 0.73 0.80 0.77 0.85 0.97 1.06 1.12 1.21 1.29 1.35 1.43 1.55 1.60 1.73 1.74 1.79 1.82 1.81 1.88 1.92 1.87 1.62 1.52 1.45 1.32 1.18 1.04 0.88 0.81 0.80 0.80 0.88
0.71 0.78 0.77 0.77 0.85 0.93 1.07 1.08 1.19 1.28 1.37 1.35 1.44 1.52 1.61 1.64 1.66 1.74 1.78 1.84 1.78 1.72 1.58 1.52 1.41 1.30 1.22 1.11 0.98 0.95 0.90 0.82 0.79
0.71 0.77 0.80 0.81 0.88 0.97 1.06 1.12 1.17 1.19 1.24 1.33 1.37 1.43 1.50 1.53 1.57 1.61 1.62 1.65 1.69 1.65 1.55 1.49 1.38 1.28 1.22 1.11 1.07 1.08 1.03 1.00 0.96
0.72 0.83 0.90 0.93 0.96 1.01 1.07 1.10 1.13 1.20 1.28 1.27 1.34 1.36 1.43 1.49 1.59 1.61 1.58 1.60 1.65 1.65 1.52 1.48 1.37 1.26 1.20 1.08 1.12 1.11 1.09 1.08 1.09
0.69 0.83 0.95 0.98 1.02 1.04 1.10 1.18 1.20 1.23 1.28 1.31 1.33 1.39 1.42 1.44 1.45 1.50 1.55 1.62 1.70 1.70 1.57 1.53 1.40 1.20 1.10 1.14 1.20 1.15 1.18 1.14 1.12
0.65 0.80 0.96 1.05 0.98 1.07 1.13 1.22 1.29 1.32 1.35 1.41 1.46 1.45 1.44 1.46 1.49 1.52 1.58 1.67 1.69 1.71 1.71 1.58 1.40 1.20 1.08 1.14 1.22 1.23 1.24 1.18 1.20
0.67 0.75 0.86 0.99 1.05 1.06 1.19 1.26 1.37 1.46 1.53 1.54 1.54 1.50 1.51 1.53 1.56 1.63 1.65 1.66 1.71 1.72 1.74 1.78 1.52 1.21 1.17 1.21 1.22 1.25 1.27 1.24 1.24
0.73 0.76 0.83 0.96 1.09 1.16 1.22 1.29 1.36 1.40 1.49 1.55 1.67 1.68 1.68 1.77 1.77 1.72 1.67 1.71 1.77 1.77 1.74 1.74 1.65 1.20 1.21 1.28 1.29 1.27 1.32 1.33 1.29
0.93 1.00 1.05 1.08 1.14 1.26 1.35 1.38 1.42 1.41 1.52 1.68 1.74 1.78 1.82 1.83 1.89 1.95 1.95 1.87 1.79 1.81 1.86 1.84 1.68 1.35 1.31 1.32 1.38 1.36 1.35 1.35 1.33
0.96 1.00 1.02 1.07 1.11 1.15 1.22 1.25 1.33 1.38 1.44 1.53 1.63 1.69 1.75 1.85 1.88 1.96 1.93 1.67 1.54 1.51 1.72 1.65 1.68 1.64 1.46 1.44 1.44 1.39 1.37 1.37 1.34
1.06 1.09 1.13 1.15 1.19 1.21 1.22 1.20 1.23 1.25 1.31 1.39 1.45 1.53 1.66 1.78 1.85 1.81 1.83 1.71 1.55 1.58 1.49 1.50 1.48 1.71 1.69 1.53 1.50 1.42 1.40 1.38 1.37
1.04 1.09 1.14 1.13 1.16 1.14 1.12 1.14 1.22 1.22 1.25 1.36 1.41 1.52 1.59 1.62 1.61 1.61 1.56 1.53 1.55 1.59 1.56 1.53 1.53 1.65 1.84 1.68 1.58 1.55 1.49 1.44 1.40
1.04 1.04 1.03 1.09 1.05 1.05 1.14 1.25 1.29 1.28 1.33 1.36 1.49 1.58 1.58 1.57 1.53 1.44 1.44 1.47 1.52 1.52 1.52 1.56 1.55 1.56 1.67 1.71 1.69 1.64 1.57 1.49 1.37
1.01 1.00 1.01 1.06 1.04 1.08 1.19 1.27 1.28 1.25 1.26 1.36 1.46 1.43 1.39 1.33 1.33 1.38 1.41 1.44 1.48 1.56 1.64 1.66 1.58 1.55 1.52 1.64 1.69 1.73 1.61 1.50 1.36
1.00 0.99 1.00 1.06 1.04 1.09 1.18 1.25 1.25 1.14 1.22 1.32 1.34 1.26 1.29 1.35 1.44 1.58 1.53 1.46 1.56 1.68 1.73 1.70 1.67 1.66 1.58 1.63 1.66 1.63 1.54 1.42 1.37
0.96 0.96 0.96 1.02 1.01 0.97 1.01 1.12 1.16 1.19 1.26 1.35 1.38 1.38 1.40 1.46 1.54 1.58 1.58 1.56 1.55 1.58 1.64 1.63 1.62 1.56 1.43 1.43 1.43 1.47 1.47 1.34 1.33
0.95 1.00 1.04 1.06 1.04 1.07 1.13 1.22 1.22 1.25 1.31 1.38 1.40 1.45 1.48 1.52 1.52 1.53 1.53 1.47 1.45 1.45 1.48 1.47 1.38 1.34 1.32 1.30 1.30 1.34 1.38 1.27 1.24
1.06 1.04 1.13 1.15 1.17 1.18 1.19 1.23 1.26 1.34 1.42 1.45 1.42 1.41 1.49 1.51 1.46 1.44 1.48 1.42 1.33 1.39 1.41 1.41 1.42 1.45 1.46 1.45 1.37 1.36 1.29 1.28 1.29
1.12 1.17 1.20 1.17 1.14 1.15 1.17 1.24 1.24 1.27 1.37 1.42 1.28 1.28 1.42 1.43 1.41 1.40 1.39 1.41 1.37 1.29 1.38 1.42 1.41 1.39 1.37 1.36 1.35 1.35 1.35 1.34 1.34

GFSFLT1_prec_pwat_291.txt.gz
Precipitable_Water
0.79 0.87 0.95 0.92 0.96 1.02 1.15 1.23 1.28 1.29 1.35 1.49 1.64 1.66 1.76 1.88 1.93 1.89 1.91 1.89 1.86 1.88 1.85 1.93 1.75 1.57 1.48 1.34 1.22 1.05 0.96 1.00 1.13
0.76 0.73 0.71 0.76 0.89 0.97 1.07 1.14 1.23 1.30 1.32 1.44 1.54 1.59 1.68 1.75 1.84 1.85 1.80 1.82 1.93 1.97 1.94 1.89 1.79 1.58 1.50 1.38 1.29 1.14 0.99 0.90 0.96
0.79 0.74 0.76 0.79 0.87 0.93 1.01 1.08 1.19 1.29 1.36 1.37 1.43 1.49 1.56 1.60 1.64 1.70 1.70 1.75 1.78 1.82 1.90 1.79 1.84 1.59 1.56 1.46 1.35 1.22 1.09 1.13 1.06
0.83 0.82 0.76 0.77 0.84 0.95 1.05 1.13 1.17 1.22 1.29 1.35 1.40 1.45 1.50 1.55 1.57 1.65 1.71 1.66 1.70 1.76 1.81 2.12 1.78 1.70 1.59 1.41 1.31 1.22 1.17 1.19 1.25
0.76 0.84 0.92 0.95 0.94 0.98 1.06 1.10 1.14 1.19 1.24 1.27 1.36 1.44 1.48 1.50 1.56 1.62 1.67 1.68 1.72 1.80 1.79 1.84 1.90 1.77 1.59 1.42 1.31 1.24 1.23 1.17 1.23
0.74 0.86 0.97 1.10 1.16 1.17 1.20 1.24 1.28 1.32 1.39 1.41 1.48 1.51 1.49 1.52 1.56 1.58 1.58 1.67 1.73 1.75 1.77 1.84 1.87 1.93 1.70 1.55 1.36 1.24 1.26 1.26 1.27
0.77 0.86 1.01 1.12 1.25 1.36 1.38 1.44 1.49 1.52 1.57 1.64 1.67 1.70 1.72 1.68 1.66 1.66 1.70 1.77 1.84 1.82 1.92 1.93 1.98 1.99 2.01 1.81 1.54 1.32 1.33 1.33 1.31
0.81 0.90 1.02 1.14 1.25 1.36 1.43 1.48 1.57 1.67 1.73 1.79 1.85 1.85 1.86 1.93 2.00 2.01 1.95 1.98 1.96 1.98 1.90 1.94 1.93 1.95 1.96 1.98 1.80 1.48 1.31 1.37 1.36
0.95 1.05 1.12 1.20 1.26 1.35 1.39 1.47 1.56 1.66 1.73 1.83 1.95 1.97 2.01 2.08 2.09 2.08 2.09 2.17 2.12 2.18 2.18 2.14 1.89 1.74 1.70 1.86 1.94 1.77 1.63 1.47 1.39
0.94 0.99 1.05 1.11 1.16 1.22 1.28 1.36 1.44 1.49 1.59 1.71 1.74 1.75 1.81 1.89 1.92 1.90 1.90 2.01 2.14 2.06 2.01 1.90 1.73 1.75 1.74 1.76 1.93 1.89 1.75 1.65 1.48
0.95 1.01 1.04 1.09 1.13 1.15 1.21 1.27 1.29 1.37 1.41 1.45 1.50 1.51 1.54 1.62 1.66 1.68 1.74 1.75 1.75 1.73 1.76 1.70 1.64 1.64 1.67 1.78 1.89 1.87 1.77 1.74 1.48
0.99 1.03 1.07 1.08 1.11 1.16 1.18 1.18 1.23 1.27 1.30 1.33 1.35 1.36 1.39 1.45 1.48 1.50 1.56 1.54 1.54 1.59 1.60 1.57 1.56 1.62 1.63 1.69 1.80 1.78 1.77 1.77 1.57
1.03 1.05 1.07 1.06 1.09 1.08 1.06 1.14 1.19 1.14 1.14 1.18 1.19 1.25 1.33 1.39 1.36 1.34 1.31 1.30 1.27 1.29 1.30 1.30 1.43 1.58 1.69 1.76 1.79 1.83 1.81 1.69 1.58
1.06 1.05 1.04 1.04 1.02 1.00 1.08 1.17 1.19 1.12 1.13 1.10 1.20 1.28 1.30 1.32 1.35 1.38 1.41 1.38 1.36 1.35 1.39 1.46 1.51 1.56 1.73 1.78 1.86 1.89 1.88 1.73 1.72
0.99 0.99 1.02 1.07 1.02 1.01 1.11 1.18 1.15 1.08 1.09 1.24 1.32 1.33 1.37 1.43 1.47 1.51 1.46 1.35 1.35 1.45 1.48 1.50 1.56 1.64 1.71 1.79 1.89 1.93 1.84 1.75 1.72
0.97 0.98 1.00 1.05 1.02 1.02 1.08 1.13 1.18 1.13 1.20 1.33 1.38 1.38 1.40 1.42 1.43 1.39 1.41 1.30 1.30 1.33 1.43 1.44 1.46 1.52 1.54 1.61 1.72 1.73 1.73 1.70 1.66
0.96 0.97 0.97 1.03 1.06 1.05 1.04 1.18 1.24 1.25 1.29 1.37 1.35 1.34 1.33 1.31 1.22 1.21 1.23 1.28 1.25 1.26 1.30 1.34 1.35 1.34 1.36 1.42 1.45 1.50 1.53 1.50 1.49
0.98 0.98 1.04 1.12 1.04 1.06 1.09 1.24 1.23 1.26 1.30 1.34 1.25 1.27 1.24 1.25 1.25 1.22 1.21 1.19 1.16 1.14 1.19 1.22 1.20 1.21 1.22 1.21 1.21 1.27 1.36 1.39 1.42
1.05 1.07 1.07 1.06 1.11 1.13 1.21 1.19 1.17 1.24 1.26 1.29 1.25 1.13 1.10 1.13 1.21 1.28 1.26 1.24 1.21 1.30 1.31 1.30 1.32 1.37 1.39 1.34 1.37 1.38 1.39 1.41 1.42
1.09 1.08 1.12 1.13 1.15 1.16 1.13 1.13 1.15 1.23 1.27 1.27 1.22 1.20 1.21 1.26 1.30 1.31 1.35 1.39 1.39 1.29 1.36 1.39 1.38 1.37 1.35 1.38 1.37 1.35 1.36 1.37 1.39